Asheville, NC

4:54 PM EDT on June 15, 2019 (GMT -0400)
Asheville Regional

Weather History for KAVL - May, 2019

Change the Weather History Date:

Saturday, May 18, 2019

  Actual Average Record
Temperature  
Mean Temperature 71 °F 64 °F  
Max Temperature 85 °F 75 °F 90 °F (1996)
Min Temperature 56 °F 52 °F 30 °F (1973)
Degree Days  
Heating Degree Days 0 3  
Month to date heating degree days 25 81  
Since 1 July heating degree days 3552 4153  
Cooling Degree Days 6 2  
Month to date cooling degree days 46 20  
Year to date cooling degree days 63 28  
Growing Degree Days 20 (Base 50)    
Moisture  
Dew Point 58 °F    
Average Humidity 67    
Maximum Humidity 93    
Minimum Humidity 40    
Precipitation  
Precipitation 0.00 in 0.12 in 2.92 in (2018)
Month to date precipitation 3.35 2.06  
Year to date precipitation 27.14 16.65  
Snow  
Snow 0.00 in 0.00 in 0.00 in ()
Month to date snowfall 0.0 0.0  
Since 1 July snowfall 11.4 9.9  
Snow Depth 0.00 in    
Sea Level Pressure  
Sea Level Pressure 30.01 in    
Wind  
Wind Speed 3 mph (South)    
Max Wind Speed 15 mph    
Max Gust Speed 20 mph    
Visibility 10 miles    
Events      
T = Trace of Precipitation, MM = Missing Value Source: NWS Daily Summary

Daily Weather History Graph

Daily Weather History Graph

Search for Another Location

Airport or City:

Astronomy

May. 18, 2019 Rise Set
Actual Time 6:23 AM EDT 8:30 PM EDT
Civil Twilight 5:55 AM EDT 8:58 PM EDT
Nautical Twilight 5:20 AM EDT 9:33 PM EDT
Astronomical Twilight 4:43 AM EDT 10:10 PM EDT
Moon 8:26 PM EDT (5/18) 6:26 AM EDT (5/18)
Length of Visible Light 15h 03m
Length of Day
14h 06m
Full, 100% of the Moon is Illuminated
May 18
Full
May 18
Full
May 26
Last Quarter
Jun 3
New
Jun 10
First Quarter

Hourly Weather History & Observations

Time (EDT) Temp. Heat Index Dew Point Humidity Pressure Visibility Wind Dir Wind Speed Gust Speed Precip Events Conditions
12:54 AM 63.0 °F - 59.0 °F 87% 30.01 in 10.0 mi Calm Calm - N/A   Clear
1:54 AM 62.1 °F - 57.9 °F 86% 30.00 in 10.0 mi Calm Calm - N/A   Clear
2:54 AM 60.1 °F - 57.0 °F 90% 29.99 in 10.0 mi WNW 3.5 mph - N/A   Clear
3:54 AM 59.0 °F - 55.9 °F 90% 30.00 in 10.0 mi Calm Calm - N/A   Clear
4:54 AM 57.9 °F - 55.0 °F 90% 30.01 in 9.0 mi Calm Calm - N/A   Clear
5:54 AM 57.9 °F - 55.0 °F 90% 30.03 in 8.0 mi Calm Calm - N/A   Clear
6:54 AM 57.0 °F - 54.0 °F 89% 30.04 in 7.0 mi Calm Calm - N/A   Clear
7:54 AM 60.1 °F - 55.9 °F 86% 30.05 in 9.0 mi Calm Calm - N/A   Clear
8:54 AM 66.0 °F - 57.9 °F 75% 30.06 in 10.0 mi Calm Calm - N/A   Clear
9:54 AM 71.1 °F - 59.0 °F 66% 30.07 in 10.0 mi Calm Calm - N/A   Clear
10:54 AM 77.0 °F - 61.0 °F 58% 30.05 in 10.0 mi Variable 3.5 mph - N/A   Clear
11:54 AM 81.0 °F 81.3 °F 59.0 °F 47% 30.04 in 10.0 mi Calm Calm - N/A   Clear
12:54 PM 82.0 °F 82.4 °F 60.1 °F 47% 30.03 in 10.0 mi Variable 3.5 mph - N/A   Clear
1:54 PM 82.0 °F 82.4 °F 60.1 °F 47% 30.01 in 10.0 mi SE 6.9 mph - N/A   Clear
2:54 PM 84.0 °F 83.8 °F 59.0 °F 43% 29.99 in 10.0 mi SSE 9.2 mph - N/A   Scattered Clouds
3:54 PM 82.9 °F 82.4 °F 57.0 °F 41% 29.98 in 10.0 mi South 11.5 mph - N/A   Clear
4:54 PM 84.0 °F 83.5 °F 57.9 °F 41% 29.96 in 10.0 mi South 12.7 mph - N/A   Partly Cloudy
5:54 PM 82.9 °F 82.8 °F 59.0 °F 44% 29.97 in 10.0 mi South 12.7 mph - N/A   Scattered Clouds
6:54 PM 81.0 °F 81.3 °F 59.0 °F 47% 29.96 in 10.0 mi South 10.4 mph - N/A   Clear
7:54 PM 78.1 °F - 61.0 °F 56% 29.99 in 10.0 mi SSE 4.6 mph - N/A   Clear
8:54 PM 75.0 °F - 60.1 °F 60% 29.99 in 10.0 mi SSE 3.5 mph - N/A   Clear
9:54 PM 73.9 °F - 60.1 °F 62% 30.01 in 10.0 mi Calm Calm - N/A   Clear
10:54 PM 71.1 °F - 61.0 °F 70% 30.01 in 10.0 mi Calm Calm - N/A   Mostly Cloudy
11:54 PM 69.1 °F - 61.0 °F 75% 30.01 in 10.0 mi Calm Calm - N/A   Partly Cloudy